الصفحة الرئيسية
METAR-TAF:

مطار :

مدينة همدان, إيران

دائرة عرض: 34-52-05N, خط طول: 048-33-08E, ارتفاع: 1757 متر

مراقبة الطقس الحالي

تاريخ ووقت الإصدار 39 دقيقة قبل الساعة 07:50UTC
ريح 6 عقدة من الغرب/الجنوب الغربي
درجة الحرارة 25°درجة مئوية
الرطوبة 18%
ضغط 1022 hPa
الرؤية 10 كم أو أكثر
الغيوم لا تقل 1500 م ولا وجود لمزنة ركامية السحاب الأسود

METAR: OIHH 280750Z 25006KT CAVOK 25/M01 Q1022

زمن: 11:59 (08:29 UTC)


TAF: مفقودة

METAR-TAF

أرصاد الطقس والتوقعات من أكثر من 4000 مطار (تقارير الطقس للمطار METAR والتنبؤ بالطقس بالمطارTAF).

المحطات المتاحة هي النقط الصفراء والحمراء على الخريطة.

حرك المؤشر فوق النقطة لمعرفة اسم المحطة.

ثم انقر لمعرفة أرصاد وتوقعات الطقس.

لتغيير الخارطة: اضغط على الأزرار الخضراء مع رمز الصليب الأسود للتكبير. على الزر الأخضر مع شرطة للتصغير، أو على الأسهم الخضراء للخرائط المجاورة.


METAR-TAF: